Theta_e
317 316 316 318 320 323 324 325 327 328 328 328 328 329 329 328 327 328 329 329 328 328 330 328 328 331 334 334 336 340 340 341 345 344 340 336 333 333 332 332 333 333 334 334
317 318 318 317 319 321 322 324 326 327 327 328 329 329 329 328 328 328 328 329 329 329 330 330 329 336 336 336 338 338 338 341 344 341 337 333 332 332 331 332 333 334 334 335
316 318 317 317 318 319 322 323 325 326 326 327 327 327 327 327 328 327 327 328 328 329 329 330 330 337 336 337 337 338 339 342 340 336 334 332 332 333 333 331 332 333 334 333
316 315 318 318 318 319 321 322 323 325 326 326 325 329 327 327 328 327 328 329 329 329 329 330 331 339 337 337 337 338 340 339 336 334 334 334 333 330 331 333 331 333 334 332
314 316 316 318 319 318 320 320 322 324 324 325 324 325 325 326 327 328 328 328 329 328 329 329 336 338 337 336 337 338 339 336 336 336 333 333 331 330 331 331 333 335 334 333
312 314 317 317 318 319 319 320 321 323 324 326 325 325 326 327 328 329 329 328 329 329 329 332 337 336 336 335 337 337 337 336 336 334 334 334 333 333 332 333 334 334 336 334
311 313 315 317 317 319 320 321 323 326 326 328 324 326 327 328 328 328 329 328 328 331 334 337 338 337 336 336 336 337 336 337 335 334 333 334 334 335 335 334 333 334 333 334
311 311 313 317 317 319 320 321 323 327 327 325 325 327 328 328 327 327 328 328 332 335 336 337 337 337 336 335 335 335 336 335 333 333 332 334 335 334 333 334 333 331 333 333
321 311 312 315 317 317 320 322 322 324 325 326 328 328 329 329 329 326 328 328 333 336 337 337 337 337 335 335 335 335 335 333 333 331 333 334 335 334 335 334 332 332 333 331
319 318 312 316 317 317 320 321 322 325 327 329 328 330 331 329 327 327 330 329 333 337 337 337 337 336 335 334 335 335 334 333 331 332 333 333 334 335 334 333 332 331 331 329
315 321 320 314 319 318 318 321 322 324 324 327 330 329 330 330 329 329 331 333 337 338 337 337 336 335 335 335 335 334 333 331 331 332 332 333 333 334 333 333 331 331 331 329
315 320 324 319 318 318 318 321 322 326 327 325 328 328 327 327 329 329 331 335 338 337 336 336 336 336 335 335 335 334 330 329 331 331 332 332 334 335 334 332 331 330 331 329
316 320 323 327 323 318 318 320 323 325 327 326 327 328 327 329 332 331 333 336 337 336 335 335 336 336 336 335 334 331 329 328 329 331 331 333 334 335 334 332 331 330 329 329
313 319 321 330 324 318 319 320 322 325 327 327 326 327 325 329 331 332 335 336 336 335 335 336 335 335 335 334 332 329 328 328 329 330 330 333 335 334 333 331 331 330 329 329
315 319 318 321 323 323 319 321 323 324 326 327 326 325 327 331 331 333 335 335 336 336 335 335 335 335 335 333 330 328 328 328 328 329 332 334 334 333 332 332 331 331 331 330
315 322 316 320 321 324 320 320 321 324 324 324 324 324 326 329 327 328 330 333 336 335 335 335 335 335 335 332 329 327 328 328 328 329 333 333 332 331 332 331 332 331 331 330
314 320 321 324 321 322 322 321 321 321 323 323 323 323 323 324 325 327 330 330 334 335 335 335 335 335 335 331 328 327 327 327 328 330 332 332 331 331 331 331 331 331 331 331
313 317 320 324 322 326 321 321 321 321 322 323 323 323 323 326 327 326 327 331 330 334 335 335 335 336 333 330 327 326 327 326 328 330 332 332 331 332 331 331 331 332 332 333
312 314 321 326 328 325 323 323 322 321 324 326 325 323 325 326 325 326 330 330 334 335 336 336 334 334 333 329 327 326 327 326 327 330 332 331 332 332 333 334 333 333 335 336
312 314 319 323 329 334 330 324 323 326 332 326 325 326 327 327 326 334 330 330 332 336 336 336 334 334 333 329 327 326 327 325 327 329 331 331 331 332 333 335 335 335 335 335
318 319 321 322 326 329 322 323 322 326 332 325 325 326 327 329 330 328 328 329 330 333 336 335 335 335 333 329 327 326 327 325 326 328 331 332 332 332 333 333 335 336 334 335
319 321 322 322 328 333 320 323 327 325 323 324 324 324 325 326 327 328 329 330 331 332 335 336 336 335 333 329 327 327 327 325 326 327 330 332 332 333 334 334 333 334 334 334
322 318 319 321 318 316 317 319 319 320 322 322 322 322 323 326 328 329 330 331 332 332 334 335 336 336 334 329 328 327 326 325 325 326 329 332 332 332 334 333 333 333 334 333
315 313 317 319 315 316 316 315 316 317 319 320 320 321 322 325 327 330 332 333 333 334 333 334 335 337 335 330 328 327 327 325 325 326 328 331 332 332 333 332 330 330 331 331
314 313 316 315 313 316 315 315 315 316 317 319 319 320 321 323 326 328 331 334 335 334 333 333 335 336 335 331 329 327 327 325 325 326 327 329 332 332 332 330 328 327 328 329
312 313 316 317 314 314 315 315 315 316 317 318 319 321 321 322 323 326 329 332 336 336 334 333 334 336 335 332 330 327 326 325 326 327 327 328 329 332 332 330 330 328 327 325
Wind_Speed
25 19 27 44 37 33 29 27 31 32 27 29 31 32 25 22 26 26 26 25 19 24 24 28 24 10 7 10 11 15 19 22 25 24 24 22 19 15 13 13 11 12 12 14
24 31 46 26 32 31 33 32 33 29 25 23 27 28 27 25 25 25 28 28 24 22 26 21 16 5 6 9 13 17 19 22 24 21 22 19 15 14 13 11 10 10 12 13
31 44 25 33 31 32 33 33 29 30 24 22 23 27 30 27 25 26 28 29 27 26 25 19 16 8 8 11 15 18 21 24 23 20 17 12 11 6 8 10 11 12 10 11
28 34 32 32 34 34 32 30 27 25 21 20 21 23 26 20 24 24 25 22 21 21 20 19 10 9 11 12 15 19 21 23 21 20 16 14 13 11 8 5 4 3 7 10
33 28 33 36 42 32 37 25 26 26 21 23 26 18 18 20 22 22 21 22 23 21 21 20 13 12 13 16 19 21 23 23 21 17 15 13 9 8 5 5 4 6 7 9
31 28 27 39 33 28 30 27 25 20 19 20 24 21 22 22 21 22 21 20 19 19 18 6 13 16 17 19 21 23 24 21 19 16 13 9 7 2 3 5 2 5 6 6
29 30 28 29 31 35 28 25 16 17 17 22 16 19 23 19 20 19 15 17 12 6 9 12 15 15 20 22 24 24 23 20 18 15 12 9 6 4 5 4 8 5 4 5
22 26 34 28 28 36 32 28 17 29 13 18 23 18 13 16 5 8 15 10 8 9 11 14 16 17 22 24 25 23 21 20 17 15 12 9 7 9 4 4 4 5 3 6
15 28 29 34 24 26 39 28 35 24 20 14 15 16 19 18 16 8 10 16 12 11 13 16 18 17 22 24 23 22 21 19 16 14 12 9 7 2 2 2 2 5 5 5
14 21 29 27 29 33 32 29 22 20 25 19 13 12 8 5 10 12 12 16 14 14 16 17 17 18 22 23 22 21 19 17 15 14 11 10 8 5 4 3 1 4 5 4
19 5 20 33 31 31 25 25 29 22 19 14 12 12 7 4 4 14 14 16 16 17 17 17 17 20 23 22 21 20 18 16 15 13 11 11 9 7 5 4 4 7 7 5
12 7 15 23 29 31 32 29 31 17 25 18 11 3 4 9 10 13 9 12 16 17 18 18 18 18 22 21 20 19 16 16 15 13 11 9 8 6 6 7 6 8 7 6
7 11 13 6 16 30 30 32 27 28 18 19 10 5 7 7 4 5 10 14 16 18 18 18 18 17 17 20 20 18 16 16 15 13 11 10 6 6 6 8 8 8 7 6
7 12 18 6 10 22 30 34 30 28 17 18 18 14 13 13 10 7 12 15 17 17 18 17 17 17 16 20 20 18 16 16 14 12 10 11 5 7 8 9 7 7 8 8
4 17 23 5 21 27 27 30 27 31 22 17 20 12 12 16 14 11 12 13 15 17 17 17 17 16 16 19 19 18 17 16 14 12 12 12 8 10 10 10 9 8 5 4
5 12 19 9 19 27 19 29 25 27 20 19 14 17 10 15 12 10 10 13 15 16 17 17 17 17 16 19 19 18 17 17 15 13 15 11 11 10 12 11 11 9 9 9
9 10 3 6 18 24 16 23 28 22 25 17 11 9 11 5 6 4 11 3 14 15 15 17 17 17 16 20 20 19 18 17 16 14 15 13 12 12 11 11 11 10 12 11
10 13 3 4 14 10 12 12 19 21 21 18 12 13 7 9 9 10 9 12 4 12 15 15 14 15 21 22 21 19 19 18 17 15 15 15 14 13 12 10 10 9 9 7
13 5 4 3 9 15 3 5 4 19 11 12 7 6 10 10 6 1 9 10 10 10 14 14 18 20 20 22 23 21 20 19 18 16 16 16 16 13 16 10 9 8 8 7
6 4 2 6 7 5 7 8 7 2 11 9 6 6 8 8 7 9 9 9 11 13 14 14 21 22 22 23 23 23 22 20 18 18 16 17 15 13 15 12 9 9 7 6
4 2 9 9 9 7 12 12 2 11 6 5 7 7 6 6 10 11 10 7 7 9 7 18 21 21 23 24 24 22 22 21 20 19 17 17 16 13 14 10 10 9 8 10
2 2 5 5 4 4 18 5 3 6 6 7 7 8 6 7 9 9 8 7 6 6 10 18 19 21 25 26 25 22 22 22 21 20 20 19 18 16 15 11 10 11 11 12
1 4 3 5 2 11 7 12 13 12 8 9 8 8 8 8 9 9 7 7 6 6 9 18 20 22 25 27 26 23 23 23 23 22 21 19 18 16 16 13 11 12 11 14
5 7 3 2 6 9 11 13 13 10 12 10 9 8 8 9 10 9 7 6 5 5 8 15 21 20 23 27 27 25 24 25 24 23 22 21 19 17 16 15 13 13 11 12
4 6 7 2 8 8 1 10 11 9 12 13 11 10 10 10 11 11 9 6 4 5 8 15 18 20 24 27 27 27 26 26 25 24 23 22 21 19 18 16 14 12 12 10
4 3 3 2 3 5 10 14 9 10 12 12 13 12 10 10 12 12 10 10 7 6 8 12 18 22 26 29 29 29 29 28 26 23 24 24 22 23 20 19 13 7 10 9
Wind_Direction
203 208 218 219 218 235 242 246 247 250 250 237 255 270 263 257 262 264 267 264 261 267 278 278 277 261 262 252 221 196 190 192 180 186 189 194 195 201 206 217 227 240 251 260
217 218 222 221 230 228 242 249 249 258 258 256 258 262 268 261 263 262 268 271 267 266 274 272 267 154 211 206 192 184 185 177 179 181 191 191 197 199 212 218 222 237 259 262
221 226 227 226 230 232 231 236 245 254 262 262 267 270 264 264 264 270 265 270 272 265 266 267 251 164 176 188 183 175 173 170 177 177 181 175 180 194 203 224 232 235 243 259
234 238 231 226 231 227 235 228 241 253 260 256 249 266 258 263 264 259 264 264 258 259 258 250 215 155 172 175 169 163 162 165 171 164 165 173 184 205 211 222 271 249 247 258
241 229 232 240 226 228 243 236 236 238 248 263 255 259 270 270 267 269 265 258 258 259 250 246 152 161 167 163 161 158 158 163 157 171 169 174 211 191 235 233 227 244 258 259
244 247 235 232 243 228 238 235 241 237 240 248 246 252 263 266 269 268 263 254 249 239 229 164 135 150 153 158 154 152 156 155 159 162 163 194 164 224 239 214 264 266 251 247
243 247 247 242 220 235 224 222 221 228 228 242 238 243 261 279 276 271 275 249 261 89 127 150 152 153 155 152 149 152 153 153 159 159 160 161 164 185 208 251 243 239 246 237
226 227 233 232 227 214 223 212 210 211 216 235 224 243 261 250 266 285 238 246 145 173 151 159 157 151 151 150 152 151 153 154 158 161 162 160 166 187 207 200 319 84 189 199
291 236 224 228 223 237 211 217 217 240 238 249 239 216 233 251 252 242 222 193 150 160 157 156 148 153 150 152 154 152 153 155 161 160 162 164 174 171 95 86 201 129 174 163
285 277 222 222 217 238 232 210 207 222 243 234 245 216 242 172 206 180 177 178 155 154 158 150 151 149 150 152 151 152 156 158 160 161 164 172 166 176 158 159 131 114 162 141
279 264 257 215 207 214 216 211 212 218 227 230 237 240 201 182 214 180 177 158 153 163 157 152 149 150 150 154 151 154 155 158 158 164 174 158 160 181 164 152 153 147 160 169
261 289 257 225 218 215 215 214 204 220 213 234 254 158 88 185 200 188 169 130 154 162 155 154 152 154 155 156 154 158 157 158 163 173 171 173 163 180 153 171 160 154 173 179
3 237 253 257 249 196 220 209 205 219 222 210 227 153 161 159 125 164 127 146 153 156 157 154 155 159 156 156 160 159 161 162 167 176 167 148 167 159 157 160 161 168 159 170
295 260 256 247 243 197 213 203 206 201 217 197 225 120 174 156 143 148 125 145 154 160 160 157 164 160 159 160 162 160 167 164 166 173 169 137 162 146 157 145 155 165 166 171
261 247 242 271 294 301 210 206 198 194 206 201 197 193 164 125 104 105 135 156 158 164 167 163 168 163 160 162 161 162 167 163 166 166 144 127 155 151 144 146 152 164 151 182
262 273 253 277 274 281 209 213 202 196 199 222 183 193 164 130 129 129 130 171 174 172 175 169 169 165 163 165 165 165 166 162 165 166 130 153 143 144 137 153 147 157 151 155
296 280 230 237 257 260 212 202 196 199 195 213 192 196 204 153 142 125 75 113 188 180 178 175 175 170 164 166 167 167 166 163 164 167 145 143 146 146 150 153 156 155 150 158
261 288 253 265 248 217 201 204 198 192 194 203 223 195 159 54 39 31 356 344 245 190 175 176 178 170 166 165 166 168 166 167 166 166 156 148 159 154 153 157 153 156 147 150
230 261 271 251 229 105 81 150 174 186 151 29 319 260 34 40 348 173 38 342 332 293 169 176 175 170 170 169 164 169 168 171 170 165 165 157 157 157 148 158 166 157 144 150
196 204 235 260 226 169 318 15 20 359 104 43 8 23 8 347 242 92 357 340 337 319 166 172 172 170 171 173 169 171 170 175 175 166 171 162 162 164 147 150 159 153 155 128
194 253 243 259 244 116 336 322 292 206 81 33 32 38 4 317 338 325 310 320 316 302 200 172 170 172 174 174 174 179 173 178 176 167 171 158 154 158 138 144 144 151 150 115
296 223 212 228 235 103 342 52 12 60 73 41 29 33 360 328 311 303 308 302 290 278 244 177 172 173 176 176 178 186 178 179 175 169 171 162 155 169 150 152 153 148 139 127
230 358 317 40 46 294 28 54 38 10 39 28 15 12 357 341 342 315 305 294 271 248 246 186 177 174 178 181 182 187 183 180 176 171 172 171 166 174 155 160 158 151 164 144
11 8 330 311 9 323 53 37 22 14 353 360 9 6 357 350 339 336 322 308 283 243 220 207 183 178 179 184 185 189 182 184 178 173 173 173 176 175 167 171 174 163 179 172
2 346 338 18 6 309 252 7 355 4 352 347 0 350 4 348 351 346 333 326 296 257 229 218 195 182 181 185 187 188 183 186 179 177 176 178 182 182 173 188 179 183 180 187
56 358 357 356 2 305 306 317 351 346 344 335 343 340 354 349 349 347 349 342 337 281 243 209 204 191 184 186 188 188 185 186 180 179 181 182 185 184 183 188 174 191 167 197